www.pogodaiklimat.ru

Погода и климат >> Архив погоды >> Австралия >> Marree Aero


ПОГОДА в Marree Aero

  • Прогноз погоды в Marree Aero
  • Монитор погоды в Marree Aero
  • Климат города

АРХИВ ПОГОДЫ в Marree Aero

Время (UTC), дата Ветер
(напр.,м/с)
 
Видим.   Явления Облачность Т
(С)
Тd
(С)
f
(%)
Тe
(С)
Тes
(С)
Комфортность P
(гПа)
Po
(гПа)
Тmin
(С)
Tmax
(С)
R
(мм)
S
(см)
05 17.03 ЮВ 3 н/о н/о +35.2 +7.3 18 +33 +33 жарко 1015.3 1009.5
04 17.03 ЮВ 4 н/о н/о +34.6 +6.8 18 +33 +33 жарко 1016.1 1010.3
06 17.03 В 4 н/о н/о +36.0 +7.1 17 +34 +34 очень
жарко
1014.8 1009.0
07 17.03 Ю 4 н/о н/о +36.4 +6.6 16 +34 +34 очень
жарко
1014.4 1008.6
08 17.03 Ю 3 н/о н/о +35.6 +5.9 16 +33 +33 жарко 1014.5 1008.7
09 17.03 Ю 4 н/о н/о +34.2 +6.5 18 +32 +32 жарко 1014.9 1009.1
11 17.03 В 6 н/о н/о +30.0 +6.6 23 +29 +29 жарко 1016.9 1011.1
10 17.03 Ю 4 н/о н/о +31.0 +6.1 21 +29 +29 жарко 1015.6 1009.8
12 17.03 В 6 н/о н/о +28.6 +6.7 25 +28 +28 жарко 1017.7 1011.9
13 17.03 В 4 н/о н/о +26.5 +6.5 28 +26 +26 жарко 1017.8 1012.0
14 17.03 ЮВ 4 н/о н/о +24.3 +6.1 31 +24 +24 комфорт 1017.8 1012.0
15 17.03 ЮВ 5 н/о н/о +23.4 +5.8 32 +24 +24 комфорт 1017.5 1011.7
17 17.03 Ю 6 н/о н/о +23.0 +5.4 32 +23 +23 комфорт 1016.8 1011.0
16 17.03 Ю 5 н/о н/о +22.8 +5.7 33 +23 +23 комфорт 1017.1 1011.3
18 17.03 Ю 5 н/о н/о +22.6 +4.6 31 +23 +23 комфорт 1016.9 1011.1
19 17.03 Ю 6 н/о н/о +21.9 +3.6 30 +22 +22 комфорт 1017.4 1011.6
20 17.03 Ю 6 н/о н/о +21.4 +3.1 30 +21 +21 комфорт 1017.8 1012.0
21 17.03 Ю 6 н/о н/о +21.1 +2.9 30 +21 +21 комфорт 1018.4 1012.6
22 17.03 Ю 5 н/о н/о +24.0 +2.8 25 +23 +23 комфорт 1018.9 1013.1
23 17.03 ЮВ 6 н/о н/о +26.9 +2.7 21 +25 +25 комфорт 1019.3 1013.5
00 18.03 В 5 н/о н/о +29.9 +3.8 19 +28 +28 жарко 1019.3 1013.5
01 18.03 В 5 н/о н/о +32.7 +3.6 16 +30 +30 жарко 1018.9 1013.1
02 18.03 ЮВ 4 н/о н/о +34.7 +3.3 14 +32 +32 жарко 1017.8 1012.0
03 18.03 ЮВ 3 н/о н/о +35.4 +2.8 13 +32 +32 жарко 1017.0 1011.2
04 18.03 ЮВ 4 н/о н/о +36.0 +0.9 11 +32 +32 жарко 1016.1 1010.3
05 18.03 ЮВ 4 н/о н/о +37.2 -0.9 9 +33 +33 жарко 1014.8 1009.0
06 18.03 Ю 5 н/о н/о +37.4 -0.8 9 +34 +34 очень
жарко
1014.0 1008.2
07 18.03 ЮВ 6 н/о н/о +37.9 -2.0 8 +34 +34 очень
жарко
1013.6 1007.8
08 18.03 ЮВ 5 н/о н/о +37.0 -2.7 8 +33 +33 жарко 1013.8 1008.0
09 18.03 Ю 5 н/о н/о +34.6 -1.4 10 +31 +31 жарко 1013.9 1008.1
10 18.03 Ю 5 н/о н/о +31.7 -2.3 11 +28 +28 жарко 1014.7 1008.9
11 18.03 ЮВ 4 н/о н/о +29.5 -1.8 13 +26 +26 жарко 1015.7 1009.9
12 18.03 ЮВ 3 н/о н/о +26.2 -1.6 16 +24 +24 комфорт 1015.9 1010.1
13 18.03 ЮВ 5 н/о н/о +25.0 -1.7 17 +23 +23 комфорт 1015.7 1009.9
14 18.03 Ю 4 н/о н/о +24.0 -1.8 18 +22 +22 комфорт 1015.2 1009.4
15 18.03 Ю 5 н/о н/о +23.2 -1.7 19 +22 +22 комфорт 1014.9 1009.1
16 18.03 Ю 5 н/о н/о +21.4 -1.8 21 +21 +21 комфорт 1014.7 1008.9
17 18.03 Ю 5 н/о н/о +21.3 -1.9 21 +21 +21 комфорт 1014.3 1008.5
18 18.03 ЮВ 5 н/о н/о +21.5 -1.1 22 +21 +21 комфорт 1013.9 1008.1
20 18.03 ЮВ 4 н/о н/о +20.7 +2.5 30 +21 +21 комфорт 1014.2 1008.4
19 18.03 ЮВ 5 н/о н/о +21.1 +0.9 26 +21 +21 комфорт 1014.0 1008.2
21 18.03 В 5 н/о н/о +22.2 +6.4 36 +23 +23 комфорт 1014.2 1008.4
22 18.03 В 4 н/о н/о +26.6 +11.5 39 +28 +28 жарко 1014.2 1008.4
23 18.03 СВ 5 н/о н/о +29.2 +13.4 38 +31 +31 жарко 1014.5 1008.7
00 19.03 С 4 н/о н/о +30.8 +13.6 35 +32 +32 жарко 1014.6 1008.8
02 19.03 В 4 н/о н/о +32.9 +13.0 30 +34 +34 очень
жарко
1012.9 1007.1
01 19.03 СВ 4 н/о н/о +31.5 +13.7 34 +33 +33 жарко 1014.0 1008.2
03 19.03 С 5 н/о н/о +33.5 +13.0 29 +34 +34 очень
жарко
1011.9 1006.1
04 19.03 СВ 2 н/о н/о +34.0 +12.9 28 +34 +34 очень
жарко
1011.2 1005.4
05 19.03 ЮЗ 4 н/о н/о +34.8 +12.5 26 +35 +35 очень
жарко
1010.3 1004.5
06 19.03 СВ 2 н/о н/о +35.5 +11.8 24 +35 +35 очень
жарко
1009.5 1003.7
08 19.03 Ю 4 н/о н/о +35.5 +11.8 24 +35 +35 очень
жарко
1008.8 1003.0
07 19.03 Ю 4 н/о н/о +35.5 +11.8 24 +35 +35 очень
жарко
1009.0 1003.2
09 19.03 Ю 3 н/о н/о +34.3 +11.4 25 +34 +34 очень
жарко
1008.9 1003.1
10 19.03 Ю 5 н/о н/о +32.9 +12.0 28 +33 +33 жарко 1009.5 1003.7
11 19.03 Ю 5 н/о н/о +31.7 +12.0 30 +32 +32 жарко 1010.1 1004.3
12 19.03 Ю 4 н/о н/о +30.9 +11.3 30 +31 +31 жарко 1010.2 1004.4
14 19.03 ЮВ 4 н/о н/о +29.1 +11.2 33 +30 +30 жарко 1009.9 1004.1
13 19.03 ЮВ 3 н/о н/о +30.3 +11.3 31 +31 +31 жарко 1010.1 1004.3
15 19.03 штиль 0 н/о н/о +28.1 +11.2 35 +29 +29 жарко 1009.5 1003.7
16 19.03 З 2 н/о н/о +27.2 +10.4 35 +28 +28 жарко 1009.3 1003.5
17 19.03 ЮЗ 3 н/о н/о +25.8 +9.6 36 +26 +26 жарко 1008.7 1002.9
18 19.03 ЮВ 2 н/о н/о +25.9 +10.9 39 +27 +27 жарко 1008.7 1002.9
19 19.03 ЮВ 1 н/о н/о +23.5 +9.9 42 +25 +25 комфорт 1009.0 1003.2
20 19.03 СВ 4 н/о н/о +25.2 +14.0 50 +28 +28 жарко 1009.2 1003.4
21 19.03 СВ 3 н/о н/о +24.1 +12.7 49 +26 +26 жарко 1009.8 1004.0
22 19.03 ЮВ 2 н/о н/о +25.9 +13.7 47 +28 +28 жарко 1010.2 1004.4
23 19.03 СВ 4 н/о н/о +29.4 +15.9 44 +32 +32 душно 1010.4 1004.6
00 20.03 СВ 4 н/о н/о +31.4 +15.0 37 +34 +34 душно 1010.4 1004.6
01 20.03 СВ 3 н/о н/о +33.3 +14.8 33 +35 +35 душно 1010.0 1004.2
02 20.03 З 3 н/о н/о +34.5 +12.8 27 +35 +35 очень
жарко
1009.2 1003.4
03 20.03 СЗ 3 н/о н/о +36.3 +11.9 23 +36 +36 очень
жарко
1008.4 1002.6
04 20.03 Ю 3 н/о н/о +36.6 +11.4 22 +36 +36 очень
жарко
1007.6 1001.8
05 20.03 З 2 н/о н/о +36.8 +10.9 21 +36 +36 очень
жарко
1006.8 1001.0
06 20.03 Ю 2 н/о н/о +37.6 +10.0 19 +36 +36 очень
жарко
1006.3 1000.5
07 20.03 В 3 н/о н/о +37.3 +9.8 19 +36 +36 очень
жарко
1006.0 1000.2
08 20.03 Ю 3 н/о н/о +37.4 +7.3 16 +35 +35 очень
жарко
1005.9 1000.1
09 20.03 ЮВ 3 н/о н/о +35.1 +9.5 21 +34 +34 очень
жарко
1006.4 1000.6
10 20.03 Ю 4 н/о н/о +33.3 +8.7 22 +32 +32 жарко 1007.3 1001.5
11 20.03 Ю 3 н/о н/о +30.9 +7.4 23 +30 +30 жарко 1007.8 1002.0
12 20.03 ЮВ 5 н/о н/о +29.3 +7.2 25 +28 +28 жарко 1008.2 1002.4
13 20.03 В 4 н/о н/о +29.2 +11.3 33 +30 +30 жарко 1008.3 1002.5
14 20.03 В 4 н/о н/о +29.1 +14.1 40 +31 +31 жарко 1008.3 1002.5
15 20.03 штиль 0 н/о н/о +27.8 +14.1 43 +30 +30 жарко 1008.3 1002.5
17 20.03 С 2 н/о н/о +24.7 +12.6 47 +27 +27 жарко 1007.6 1001.8
16 20.03 С 2 н/о н/о +26.7 +14.1 46 +29 +29 жарко 1008.1 1002.3
18 20.03 штиль 0 н/о н/о +24.0 +11.3 45 +25 +25 комфорт 1007.8 1002.0
19 20.03 ЮЗ 5 н/о н/о +25.4 +13.3 47 +27 +27 жарко 1008.5 1002.7
20 20.03 Ю 3 н/о н/о +23.0 +12.9 53 +26 +26 жарко 1009.1 1003.3
21 20.03 ЮВ 4 н/о н/о +22.0 +13.1 57 +25 +25 комфорт 1009.5 1003.7
23 20.03 Ю 3 н/о н/о +27.6 +14.3 44 +30 +30 жарко 1010.9 1005.1
22 20.03 Ю 4 н/о н/о +24.4 +13.9 52 +27 +27 жарко 1010.4 1004.6
00 21.03 Ю 4 н/о н/о +29.1 +14.1 40 +31 +31 жарко 1011.5 1005.7
01 21.03 Ю 3 н/о н/о +30.7 +14.3 37 +33 +33 душно 1011.4 1005.6
02 21.03 Ю 3 н/о н/о +32.5 +14.1 33 +34 +34 очень
жарко
1011.1 1005.3
03 21.03 З 4 н/о н/о +34.3 +13.2 28 +35 +35 очень
жарко
1010.5 1004.7
05 21.03 З 5 н/о н/о +36.1 +11.7 23 +36 +36 очень
жарко
1009.2 1003.4
04 21.03 ЮЗ 3 н/о н/о +35.0 +12.6 26 +35 +35 очень
жарко
1009.8 1004.0
06 21.03 З 6 н/о н/о +35.9 +11.5 23 +35 +35 очень
жарко
1008.8 1003.0
07 21.03 З 6 н/о н/о +35.8 +10.8 22 +35 +35 очень
жарко
1008.7 1002.9
08 21.03 З 5 н/о н/о +35.0 +10.1 22 +34 +34 очень
жарко
1008.8 1003.0
09 21.03 З 5 н/о н/о +32.9 +10.3 25 +32 +32 жарко 1009.1 1003.3
11 21.03 ЮЗ 5 н/о н/о +30.1 +10.6 30 +30 +30 жарко 1010.8 1005.0
10 21.03 ЮЗ 4 н/о н/о +31.0 +10.4 28 +31 +31 жарко 1009.6 1003.8
12 21.03 ЮЗ 8 н/о н/о +29.1 +8.7 28 +29 +29 жарко 1011.6 1005.8
13 21.03 Ю 6 н/о н/о +27.1 +7.5 29 +27 +27 жарко 1012.1 1006.3
14 21.03 Ю 5 н/о н/о +25.8 +6.9 30 +26 +26 жарко 1012.0 1006.2
15 21.03 ЮЗ 6 н/о н/о +25.3 +7.4 32 +25 +25 комфорт 1011.7 1005.9
18 21.03 ЮЗ 5 н/о н/о +22.5 +9.3 43 +24 +24 комфорт 1011.9 1006.1
20 21.03 Ю 6 н/о н/о +21.2 +12.1 56 +23 +23 комфорт 1012.3 1006.5
19 21.03 Ю 6 н/о н/о +22.0 +11.1 50 +24 +24 комфорт 1011.9 1006.1
21 21.03 Ю 7 н/о н/о +21.4 +13.3 60 +24 +24 комфорт 1012.8 1007.0
22 21.03 Ю 7 н/о н/о +22.6 +14.2 59 +26 +26 жарко 1013.2 1007.4
23 21.03 Ю 6 н/о н/о +25.6 +14.4 50 +28 +28 жарко 1013.9 1008.1
00 22.03 Ю 6 н/о н/о +28.1 +12.5 38 +29 +29 жарко 1014.4 1008.6
01 22.03 ЮЗ 6 н/о н/о +29.2 +11.3 33 +30 +30 жарко 1014.0 1008.2
02 22.03 Ю 4 н/о н/о +31.0 +10.9 29 +31 +31 жарко 1013.3 1007.5
03 22.03 ЮЗ 4 н/о н/о +31.7 +10.4 27 +31 +31 жарко 1012.4 1006.6
04 22.03 Ю 4 н/о н/о +33.1 +10.4 25 +33 +33 жарко 1011.5 1005.7
05 22.03 Ю 5 н/о н/о +33.6 +10.9 25 +33 +33 жарко 1010.8 1005.0
06 22.03 Ю 5 н/о н/о +33.3 +10.0 24 +33 +33 жарко 1010.3 1004.5
07 22.03 Ю 6 н/о н/о +33.2 +9.9 24 +32 +32 жарко 1010.3 1004.5
08 22.03 Ю 6 н/о н/о +31.9 +8.2 23 +31 +31 жарко 1010.5 1004.7
09 22.03 Ю 6 н/о н/о +30.3 +9.2 27 +30 +30 жарко 1011.0 1005.2
10 22.03 Ю 5 н/о н/о +28.9 +11.0 33 +29 +29 жарко 1011.5 1005.7
11 22.03 Ю 3 н/о н/о +26.6 +10.3 36 +27 +27 жарко 1012.2 1006.4
12 22.03 Ю 3 н/о н/о +24.3 +9.1 38 +25 +25 комфорт 1012.8 1007.0
13 22.03 ЮЗ 3 н/о н/о +23.9 +9.1 39 +25 +25 комфорт 1012.8 1007.0
14 22.03 Ю 2 н/о н/о +23.4 +9.4 41 +25 +25 комфорт 1012.6 1006.8
15 22.03 Ю 4 н/о н/о +22.8 +10.3 45 +25 +25 комфорт 1012.4 1006.6
16 22.03 ЮВ 5 н/о н/о +22.3 +12.8 55 +25 +25 комфорт 1012.1 1006.3
17 22.03 ЮВ 4 н/о н/о +22.5 +14.4 60 +26 +26 жарко 1011.9 1006.1
18 22.03 ЮВ 4 н/о н/о +21.9 +13.8 60 +25 +25 комфорт 1011.8 1006.0
19 22.03 ЮВ 4 н/о н/о +21.0 +13.4 62 +24 +24 комфорт 1012.1 1006.3
20 22.03 ЮВ 4 н/о н/о +20.1 +12.8 63 +22 +22 комфорт 1012.9 1007.1
21 22.03 Ю 4 н/о н/о +20.0 +13.0 64 +22 +22 комфорт 1013.5 1007.7
23 22.03 ЮВ 6 н/о н/о +26.7 +14.1 46 +29 +29 жарко 1014.5 1008.7
22 22.03 ЮВ 5 н/о н/о +23.7 +13.8 54 +26 +26 жарко 1014.0 1008.2
00 23.03 ЮВ 5 н/о н/о +28.7 +13.8 40 +31 +31 жарко 1014.4 1008.6
01 23.03 ЮВ 4 н/о н/о +31.0 +13.3 34 +32 +32 жарко 1014.3 1008.5
02 23.03 В 3 н/о н/о +32.6 +13.3 31 +34 +34 очень
жарко
1013.5 1007.7
03 23.03 Ю 4 н/о н/о +32.7 +12.3 29 +33 +33 жарко 1012.6 1006.8
05 23.03 Ю 4 н/о н/о +34.8 +11.2 24 +34 +34 очень
жарко
1011.0 1005.2
04 23.03 Ю 5 н/о н/о +33.6 +12.0 27 +34 +34 очень
жарко
1011.8 1006.0
06 23.03 ЮВ 4 н/о н/о +34.7 +11.2 24 +34 +34 очень
жарко
1010.5 1004.7
07 23.03 Ю 5 н/о н/о +35.3 +11.0 23 +35 +35 очень
жарко
1010.3 1004.5
08 23.03 ЮВ 5 н/о н/о +34.4 +10.3 23 +34 +34 очень
жарко
1010.4 1004.6
09 23.03 Ю 5 н/о н/о +33.1 +9.8 24 +32 +32 жарко 1010.9 1005.1
11 23.03 Ю 6 н/о н/о +29.7 +11.2 32 +30 +30 жарко 1012.5 1006.7
10 23.03 Ю 5 н/о н/о +31.5 +11.3 29 +32 +32 жарко 1011.6 1005.8
12 23.03 Ю 4 н/о н/о +28.1 +10.8 34 +29 +29 жарко 1012.9 1007.1
13 23.03 ЮВ 5 н/о н/о +27.3 +10.1 34 +28 +28 жарко 1013.2 1007.4
14 23.03 ЮВ 4 н/о н/о +25.9 +10.1 37 +27 +27 жарко 1012.9 1007.1
15 23.03 Ю 4 н/о н/о +24.9 +10.4 40 +26 +26 жарко 1012.3 1006.5
17 23.03 Ю 5 н/о н/о +24.0 +10.7 43 +25 +25 комфорт 1011.5 1005.7
16 23.03 Ю 4 н/о н/о +23.7 +10.4 43 +25 +25 комфорт 1011.9 1006.1
18 23.03 Ю 5 н/о н/о +23.4 +10.5 44 +25 +25 комфорт 1011.5 1005.7
19 23.03 ЮВ 4 н/о н/о +22.3 +10.1 46 +24 +24 комфорт 1011.4 1005.6
20 23.03 ЮВ 4 н/о н/о +21.0 +9.9 49 +23 +23 комфорт 1011.6 1005.8
21 23.03 Ю 4 н/о н/о +21.7 +11.1 51 +24 +24 комфорт 1011.9 1006.1
22 23.03 ЮВ 4 н/о н/о +26.0 +12.8 44 +28 +28 жарко 1012.4 1006.6
23 23.03 ЮВ 5 н/о н/о +27.2 +13.2 42 +29 +29 жарко 1012.6 1006.8
00 24.03 В 5 н/о н/о +32.0 +14.2 34 +34 +34 душно 1012.5 1006.7
01 24.03 В 5 н/о н/о +33.1 +13.7 31 +34 +34 очень
жарко
1012.2 1006.4
02 24.03 СВ 5 н/о н/о +34.8 +12.5 26 +35 +35 очень
жарко
1011.3 1005.5
03 24.03 СВ 4 н/о н/о +35.2 +11.6 24 +35 +35 очень
жарко
1010.4 1004.6

 

Местоположение метеостанции Marree Aero (Южная Австралия, Австралия): широта -29.66 долгота 138.06 высота над уровнем моря 51 м.

В архиве по умолчанию представлена погода в Marree Aero за последнюю неделю. Архивные данные за месяц целиком и за предыдущие месяцы, начиная с января 2011 года, Вы можете получить, выбрав интересующий диапазон дат из раскрывающегося списка и нажав кнопку "Ввод!".

Внимание! Время в таблицах - всемирное. Для получения местного времени необходимо прибавить поправку, которая в Marree Aero равна 9.5 ч.

Смотрите также архив погоды в соседних городах и на ближайших метеорологических станциях:

Погода в Leigh Creek Airport (Южная Австралия, Австралия) (110 км)
Погода в Olympic Dam Aerodrome (Южная Австралия, Австралия) (146 км)
Погода в Woomera Aerodrome (Южная Австралия, Австралия) (205 км)
Погода в Moomba Airport (Южная Австралия, Австралия) (271 км)
Погода в Port Augusta Arid Lands (Южная Австралия, Австралия) (320 км)
Погода в Coober Pedy Airport (Южная Австралия, Австралия) (332 км)
Погода в Oodnadatta Airport (Южная Австралия, Австралия) (346 км)
Погода в Yunta Airstrip (Южная Австралия, Австралия) (354 км)
Погода в Tarcoola Aero (Южная Австралия, Австралия) (355 км)
Погода в Whyalla Airport (Южная Австралия, Австралия) (383 км)

Пояснения к столбцам:

Ветер - указаны скорость ветра в м/с - средняя за 10 мин, порывы в срок и между сроками (в фигурных скобках) и направление, откуда дует ветер: С - северный, СВ - северо-восточный, В - восточный, ЮВ - юго-восточный, Ю - южный, ЮЗ - юго-западный, З - западный, СЗ - северо-западный.
Видимость - горизонтальная дальность видимости в метрах или километрах. При видимости от 1 до 10 км при отсутствии осадков обычно наблюдается дымка, при ухудшении видимости до 1 км и менее - туман. В сухую погоду видимость может ухудшаться дымом, пылью или мглою.
Явления - указаны атмосферные явления, наблюдавшиеся в срок или в последний час перед сроком; фигурными скобками обозначены явления, наблюдавшиеся между сроками (за 1-3 часа до срока); квадратными скобками обозначены град или гололедные отложения с указанием их диаметра в мм.
Облачность - указаны через наклонную черту общая и нижняя облачность в баллах и высота нижней границы облаков в метрах; квадратными скобками обозначены формы облаков: Ci - перистые, Cs - перисто-слоистые, Cc - перисто-кучевые, Ac - высококучевые, As - высокослоистые, Sc - слоисто-кучевые, Ns - слоисто-дождевые, Cu - кучевые, Cb - кучево-дождевые. Подробнее классификацию облаков см. в Атласе облаков (PDF).
T - Температура воздуха - температура, измеренная на высоте 2 м над землей.
Td - Температура точки росы - температура, при понижении до которой содержащийся в воздухе водяной пар достигнет насыщения.
f - Относительная влажность воздуха - влажноcть воздуха, измеренная на высоте 2 м над землей.
Te - Эффективная температура - температура, которую ощущает одетый по сезону человек в тени. Характеристика душности погоды. При расчете учитывается влияние влажности воздуха и скорости ветра на теплоощущения человека.
Tes - Эффективная температура на солнце - температура, которую ощущает человек, с поправкой на солнечный нагрев. Характеристика знойности погоды. Зависит от высоты солнца над горизонтом, облачности и скорости ветра. Ночью, в пасмурную погоду, а также при ветре 12 м/с и более поправка равна нулю.
P - Атмосферное давление - приведенное к уровню моря атмосферное давление.
Po - Атмосферное давление - измеренное на уровне метеостанции атмосферное давление.
Tmin - Минимальная температура - минимум температуры воздуха на высоте 2 м над землей.
Tmax - Максимальная температура - максимум температуры воздуха на высоте 2 м над землей.
R - Количество осадков - Количество выпавших осадков, мм. При наведении курсора мыши на число - период времени, за который выпало указанное количество осадков.
S - Снежный покров - Высота снежного покрова, см. При наведении курсора мыши на число - состояние снежного покрова и степень покрытия местности в баллах.